Location: *
(21.3462°S, 102.2179°E)
Time: 10:20:12
(UTC+00:00)

Daily predictions for brighter satellites

Satellite Brightness Start Highest point End
(mag) Time Altitude Azimuth Time Altitude Azimuth Time Altitude Azimuth
Aurora 2 Rocket 2.2 12:00:41 10° W 12:03:43 52° NNW 12:05:09 27° NE
CZ-2D R/B 3.5 12:01:25 19° SE 12:03:49 45° E 12:07:28 10° N
Cosmos 2366 rocket 4.0 12:02:12 10° S 12:08:38 89° W 12:14:56 10° N
IRS-1C Rocket 4.3 12:05:49 10° S 12:11:07 74° WSW 12:16:23 10° NNW
RESURS DK-1 4.5 12:08:24 10° NW 12:11:55 27° WSW 12:15:29 10° S
CZ-4C R/B 3.2 12:03:58 10° NNW 12:12:32 82° WSW 12:20:25 10° SSE
ASTRO E2 3.0 12:10:37 10° W 12:14:34 56° SSW 12:15:43 39° SE
Delta 198 3.3 12:12:02 10° W 12:15:42 59° S 12:16:33 46° SE
Cosmos 2082 Rocket 2.4 12:13:06 10° SSW 12:18:50 73° WNW 12:24:30 10° N
SEDSat Delta rocket 3.5 12:15:34 10° W 12:19:29 45° SSW 12:20:35 36° SSE
Aureole 1 Rocket 3.1 12:15:47 10° S 12:19:40 53° ESE 12:24:43 10° NNE
Cosmos 2084 Rocket 3.2 12:15:35 10° SSW 12:19:46 75° ESE 12:21:23 36° NE
Cosmos 1606 3.7 12:17:52 10° N 12:20:08 32° NNE 12:20:08 32° NNE
Cosmos 1743 Rocket 4.0 12:17:33 10° SSW 12:21:54 61° W 12:26:14 10° N
Cosmos 676 Rocket 3.9 12:24:06 10° S 12:29:20 66° ESE 12:34:33 10° NNE
ATLAS 3B R/B 3.3 12:24:09 10° S 12:29:57 34° SE 12:29:57 34° SE
Delta 2 Rocket 3.7 12:27:24 10° SW 12:31:59 54° SSE 12:31:59 54° SSE
SWIFT 2.3 12:28:52 10° WNW 12:33:08 70° N 12:33:12 70° NNE
Cosmos 1939 Rocket 4.1 12:32:12 10° S 12:35:56 40° WSW 12:39:33 10° NW
Okean-O 3.6 12:36:58 10° S 12:41:16 46° WSW 12:45:30 10° NNW
CSL-04 Debris 4.0 12:51:11 82° E 12:51:14 82° ENE 12:56:43 10° N
Cosmos 1110 Rocket 4.3 12:48:11 10° NNW 12:53:23 64° WSW 12:54:48 45° SSW
Cosmos 2369 Rocket 4.0 12:54:50 10° NW 12:59:42 29° WSW 13:04:38 10° S
CZ-2C R/B 3.8 12:56:10 10° N 13:01:11 42° W 13:06:22 10° SSW
Hubble Space Telescope 2.8 12:58:13 10° WSW 13:00:03 24° SW 13:00:03 24° SW
Cosmos 1656 Rocket 4.1 12:57:53 10° NNW 13:03:26 59° WSW 13:04:35 49° SSW
CENTAUR R/B 3.7 12:59:46 10° SW 13:04:20 31° WNW 13:08:52 10° N
Milstar 3 4.0 13:08:39 10° NW 13:17:42 68° NNE 13:20:20 58° ENE
Milstar 3 Cent rocket 4.4 13:39:08 10° WSW 13:40:03 15° WSW 13:40:03 15° WSW
CZ-3A R/B 2.9 21:19:19 43° E 21:19:19 43° E 21:26:03 10° E
GPS 2-17 Rocket1 4.3 21:29:28 37° ENE 21:29:28 37° ENE 21:32:32 10° E
H-2A R/B 3.0 21:26:33 42° NNW 21:28:22 51° NNE 21:31:45 10° E
CZ-4C R/B 3.9 21:31:57 14° SSE 21:34:39 22° ESE 21:38:10 10° ENE
COSMOS 2455 3.7 21:32:56 21° S 21:36:37 46° ESE 21:42:20 10° NE
X-37B 3.5 21:42:53 15° SE 21:42:53 15° SE 21:43:36 10° SE
Cosmos 2278 Rocket 4.5 21:46:05 10° NNW 21:46:05 10° NNW 21:46:11 10° NNW
Cosmos 1386 Rocket 4.3 21:38:16 10° N 21:44:18 77° W 21:50:33 10° S
ATLAS 2AS CENTAUR R/B 3.7 21:47:03 32° NW 21:47:03 32° NW 21:52:07 10° N
ASTEX 1 3.9 21:41:58 10° NNE 21:46:48 58° E 21:51:43 10° S
Cosmos 1371 Rocket 4.3 21:46:29 27° S 21:49:18 66° ESE 21:54:26 10° NNE
ARIANE 5 R/B 4.0 21:49:11 14° NNW 21:51:59 21° NNE 22:01:37 10° ENE
Meteor 1-11 4.3 21:57:33 10° NNW 22:02:58 51° W 22:08:25 10° S
Okean O Rocket 4.0 21:59:27 10° NE 22:02:59 23° ESE 22:06:32 10° SSE
PSLV R/B 3.9 22:00:03 10° NNE 22:03:43 66° ESE 22:05:42 25° S
Cosmos 1315 Rocket 3.1 22:01:18 18° S 22:04:16 68° E 22:08:19 10° NNE
Cosmos 2369 Rocket 4.4 21:59:55 10° SSE 22:04:19 23° ESE 22:08:39 10° ENE
Cosmos 1745 Rocket 4.2 22:00:19 10° NNW 22:06:05 42° W 22:11:54 10° SSW
Cosmos 2056 Rocket 3.4 22:04:24 15° SSW 22:08:46 90° WNW 22:14:04 10° NNE
Cosmos 2058 4.4 22:11:18 10° NNE 22:15:14 39° E 22:19:12 10° SSE
EPKM 2.6 22:16:16 46° W 22:17:18 83° NNW 22:26:32 10° ENE
H-2A R/B 2.3 22:13:32 10° N 22:17:25 63° WNW 22:19:52 23° SSW
MOS 1-B 4.3 22:16:22 10° NNE 22:22:09 89° WNW 22:28:00 10° SSW
RESURS DK-1 2.3 22:19:10 18° SSW 22:22:10 90° NE 22:26:17 10° NNE
Cosmos 1943 Rocket 2.7 22:18:29 10° S 22:24:02 59° ESE 22:29:34 10° NNE
Cosmos 494 Rocket 4.0 22:19:21 10° NNW 22:24:34 90° WNW 22:29:54 10° SSE
ISS -1.0 22:24:28 10° S 22:26:37 16° SE 22:28:44 10° E
Cosmos 2297 3.8 22:22:35 15° SSW 22:27:15 53° WNW 22:32:48 10° N
SJ-7 4.4 22:23:11 10° NNE 22:27:22 89° WNW 22:31:39 10° SSW
YAOGAN 6 4.4 22:28:57 10° NE 22:32:06 32° ESE 22:35:18 10° SSE
SL-4 R/B 2.8 22:34:33 10° NNW 22:38:07 48° NE 22:42:01 10° SE
Cosmos 332 Rocket 4.2 22:33:37 10° S 22:38:27 64° ESE 22:43:12 10° NNE
TELKOM 3 4.0 22:35:59 17° SW 22:39:10 86° SE 22:42:30 10° NE
CZ-4B R/B 2.0 22:37:09 10° S 22:40:22 34° WSW 22:43:30 10° NW
ADEOS Rocket 3.3 22:34:24 10° SSE 22:41:02 87° WSW 22:48:21 10° NNW
SMAP 3.7 22:39:15 10° NNE 22:43:49 60° ESE 22:48:27 10° S
Nadezhda 1 Rocket 4.5 22:38:10 10° SSW 22:43:58 38° W 22:49:47 10° NNW
SAR-Lupe-4 4.2 22:42:20 10° S 22:45:36 33° WSW 22:48:50 10° NW
Cosmos 1709 Rocket 4.5 22:40:46 10° NNW 22:46:16 36° W 22:51:53 10° SSW
Cosmos 371 Rocket 3.4 22:46:59 10° SSW 22:51:47 55° WNW 22:56:32 10° N
Radarsat Rocket 4.0 22:49:35 10° N 22:55:58 70° WNW 23:01:53 10° SSW
Cosmos 1943 4.4 22:53:16 10° WNW 22:57:14 19° WSW 23:01:14 10° SSW
In-Cosmos 22 Rocket 4.5 22:53:29 10° NNW 22:58:53 46° W 23:04:13 10° S
Cosmos 1076 Rocket 3.6 22:55:48 10° NNW 23:00:06 59° W 23:04:27 10° S
Palapa 6 Rocket 3.0 22:56:04 13° W 23:00:20 73° S 23:04:23 10° E
Cosmos 1420 Rocket 4.2 22:57:18 10° SSW 23:02:18 48° WNW 23:07:17 10° N
Sakura Rocket 4.4 22:59:18 10° WSW 23:04:36 56° SSE 23:12:09 10° E
CZ-3 R/B 2.6 22:51:07 11° W 23:09:04 56° SSW 23:14:23 10° ESE
GPS 2-17 Rocket1 3.2 23:06:48 10° W 23:11:22 79° N 23:16:06 10° E
Abrixas rocket 3.9 23:10:42 10° W 23:12:31 15° NW 23:14:20 10° NNW
COSMO-SKYMED 1 2.6 23:08:43 10° S 23:13:07 80° W 23:17:27 10° NNW
Cosmos 2221 2.6 23:09:26 10° SSW 23:13:47 59° W 23:18:05 10° N
FUSE 4.0 23:10:01 10° W 23:15:22 80° SSW 23:20:44 10° ESE
USA 81 4.3 23:12:08 10° NNW 23:17:14 50° W 23:22:24 10° S
